STARLINK-32789, 62529

Orbit data source: Space-Track

STARLINK-32789, 62529 is a payload satellite owned by SpaceX/Seattle (US) in LEO that was launched on Wed, 08 Jan 2025 UTC via an FALCON 9 launch vehicle from the Air Force Eastern Test Range (AFETR). Payload-class satellites include a variety of spacecraft equipped with specific instruments for various scientific and technological missions. These include communications satellites like Starlink; space stations such as the ISS; scientific satellites like the Hubble; Earth observation satellites from companies like Planet Labs, Umbra, and HawkEye 360; GPS; miniature CubeSats for education and research; and military/defense satellites.

Loading next visibility...
Identifier
62529, 2025-004U
Orbit
LEO
Last TLE update
23 hours ago
Origin
Manufacturer
SpaceX/Seattle
Mission
Operational Commercial Communications
Bus & Motor
STARLINK V2M, Unknown motor
Mass
730 kg wet, ~700 kg dry
Launch date (UTC)
2025-01-08 (6 months ago)
Launch vehicle
FALCON 9
Launch site
Air Force Eastern Test Range (AFETR)
Object type
Payload
Rocket body
Debris
Shape & HBR
Box + 2 Pan, 29 m
Radar Cross Section
33.884 m², Large (>1 m²)

Expand to show TLE details & history

TLE from 23 hours ago
0 STARLINK-32789
1 62529U 25004U   25183.30087289  .00012399  00000-0  45932-3 0  9991
2 62529  42.9999 194.0364 0001660 278.2510  81.8154 15.27580467 28162
Epoch: 2025-07-02T07:13Z
TLE epoch observation values (Epoch: 2025-07-02T07:13:15.417Z)
Latitude
0.00002°
Longitude
165.13824°
Altitude
482.661 km
Speed
7.626 km/s
True Right ascension
12h 56m 08s
True Declination
0° 00' 00"
Sunlit
Object was in daylight at epoch
Visualization orbit readout
Latitude
28.11039°
Longitude
-54.90174°
Altitude
484.222 km
Speed
7.627 km/s
Apparent Right ascension
01h 20m 30s
Apparent Declination
-7° 35' 29"
Sunlit
Object is in daylight
Visualization observer readout
Local Sidereal Time
17:32:41
Azimuth
78.051° E
Elevation
-25.428°
Doppler factor
1
Orbital elements
Apogee altitude
486.132 km
Perigee altitude
483.854 km
Semi-major axis
6,863.13 km
Eccentricity
0.00017
Inclination
42.9999°
RAAN
194.0364°
Arg. of periapsis
278.251°
True anomaly
Unknown
Mean anomaly
81.8154°
Eccentric anomaly
Unknown
Mean motion
3.81733 °/min
Orbital period
94.31 mins
BSTAR
0.00045932
Loading maneuver chart data...
Loading SW <> Apogee altitude chart data...
Loading historical data...
Loading historical data...
Loading historical data...
Loading historical data...
Loading historical data...
Loading historical data...
Loading historical data...

STARLINK-32789 Visibility forecast

Observer location: undefined°, undefined°

Span
Click to sort rows by Start time (UTC) header in descending order
Start Az.
Max El. time (UTC)
Max El. Az.
Max El.
End time (UTC)
End Az.
6 mins2025-07-03 07:07:06.869Z288.149° WNW2025-07-03 07:10:06.869Z355.641° N38.399°2025-07-03 07:13:06.869Z78.658° E
5 mins2025-07-03 08:47:06.869Z283.474° WNW2025-07-03 08:49:06.869Z235.202° WSW43.549°2025-07-03 08:52:06.869Z118.006° SE
5 mins2025-07-04 03:22:06.869Z205.575° SW2025-07-04 03:24:06.869Z161.925° S28.187°2025-07-04 03:27:06.869Z90.121° ESE
5 mins2025-07-04 05:01:06.869Z264.965° W2025-07-04 05:03:06.869Z323.956° NNW43.291°2025-07-04 05:06:06.869Z69.027° E
|